Home > Time Zones > World Clock > Weather > U.S.A. > Adak > Past weeks

Flag for U.S.A. Weather past 2 weeks in Adak, Alaska, U.S.A.

Now
39 °F

Passing clouds.


Feels Like: 39 °F
Forecast: 47 / 49 °F
Wind: No wind

Location: Adak

Current Time: Oct 2, 2014 at 5:14:45 AM

Latest Report: Oct 2, 2014 at 4:36 AM


Visibility: 8 mi

Pressure: 29.77 "Hg

Humidity: 81%

Dew point: 34 °F

Location of AdakLocation

Historic Weather in Adak — Graph

°F

Adak temperature yesterday

Maximum temperature yesterday: 54 °F (at 4:56 PM)
Minimum temperature yesterday: 41 °F (at 11:36 PM)
Average temperature yesterday: 47 °F

Past Weeks' High & Low Weather Summary

 TemperatureHumidityPressure
High57 °F (Sep 22, 3:16 PM)88% (Sep 21, 8:56 AM)30.23 "Hg (Sep 21, 8:56 AM)
Low39 °F (Sep 19, 3:36 AM)58% (Sep 18, 6:16 AM)29.66 "Hg (Sep 21, 5:16 AM)
Average50 °F76%29.88 "Hg
* Reported Sep 17 4:16 AM — Oct 2 4:16 AM, Adak, Weather by CustomWeather, © 2014

Note: Actual official high and low records may vary slightly from our data, if they occured in-between our weather recording intervals... More about our weather records

Advertising

Adak weather history for previous 24 hours

 ConditionsComfort  
Time TempWeatherWind HumidityBarometerVisibility
4:16 AM
Oct 2
39 °FPassing clouds.No wind81%29.77 "Hg9 mi
3:56 AM39 °FClear.3 mph81%29.78 "Hg9 mi
3:36 AM39 °FClear.3 mph87%29.78 "Hg10 mi
2:56 AM39 °FClear.5 mph81%29.79 "Hg10 mi
2:36 AM39 °FClear.7 mph81%29.79 "Hg8 mi
2:16 AM39 °FClear.5 mph81%29.79 "Hg9 mi
1:56 AM41 °FClear.5 mph81%29.80 "Hg10 mi
1:36 AM41 °FClear.5 mph81%29.80 "Hg10 mi
1:16 AM41 °FClear.No wind81%29.80 "Hg10 mi
12:56 AM43 °FClear.No wind81%29.80 "Hg10 mi
12:36 AM45 °FClear.No wind76%29.80 "Hg10 mi
12:16 AM43 °FClear.No wind81%29.81 "Hg9 mi
11:56 PM
Oct 1
41 °FClear.5 mph81%29.81 "Hg8 mi
11:36 PM41 °FClear.5 mph81%29.81 "Hg8 mi
11:16 PM43 °FClear.3 mph81%29.82 "Hg9 mi
10:56 PM45 °FClear.3 mph76%29.82 "Hg9 mi
10:36 PM45 °FClear.5 mph76%29.82 "Hg10 mi
10:16 PM45 °FPassing clouds.6 mph76%29.82 "Hg10 mi
9:56 PM45 °FPassing clouds.6 mph76%29.82 "Hg10 mi
9:36 PM45 °FClear.6 mph76%29.81 "Hg10 mi
9:16 PM46 °FSunny.No wind76%29.81 "Hg10 mi
8:56 PM46 °FSunny.6 mph76%29.81 "Hg10 mi
8:36 PM46 °FSunny.7 mph76%29.81 "Hg9 mi
8:16 PM46 °FPassing clouds.8 mph76%29.81 "Hg8 mi
7:56 PM48 °FScattered clouds.7 mph76%29.81 "Hg8 mi
7:36 PM48 °FPassing clouds.7 mph71%29.81 "Hg9 mi
7:16 PM48 °FSunny.5 mph71%29.81 "Hg10 mi
6:56 PM48 °FSunny.6 mph71%29.81 "Hg10 mi
6:36 PM50 °FSunny.7 mph71%29.81 "Hg10 mi
6:16 PM50 °FSunny.5 mph67%29.80 "Hg10 mi
5:56 PM52 °FSunny.8 mph62%29.81 "Hg10 mi
5:36 PM52 °FSunny.7 mph62%29.81 "Hg10 mi
5:16 PM54 °FSunny.6 mph58%29.81 "Hg10 mi
4:56 PM54 °FSunny.6 mph58%29.82 "Hg10 mi
4:36 PM52 °FScattered clouds.7 mph62%29.82 "Hg10 mi
4:16 PM50 °FMostly cloudy.7 mph71%29.83 "Hg10 mi
3:56 PM52 °FScattered clouds.7 mph67%29.83 "Hg10 mi
3:36 PM52 °FScattered clouds.10 mph67%29.84 "Hg10 mi
3:16 PM52 °FPartly sunny.7 mph67%29.84 "Hg9 mi
2:56 PM52 °FSunny.8 mph67%29.85 "Hg10 mi
2:36 PM52 °FPassing clouds.7 mph67%29.85 "Hg10 mi
2:16 PM52 °FScattered clouds.7 mph62%29.85 "Hg10 mi
1:56 PM50 °FPassing clouds.9 mph71%29.86 "Hg9 mi
1:36 PM52 °FPartly sunny.14 mph72%29.86 "Hg8 mi
1:16 PM50 °FOvercast.10 mph71%29.86 "Hg10 mi
12:56 PM50 °FPartly sunny.9 mph71%29.87 "Hg9 mi
12:36 PM52 °FPartly sunny.12 mph72%29.87 "Hg10 mi
12:16 PM50 °FScattered clouds.6 mph76%29.87 "Hg8 mi
11:56 AM48 °FPassing clouds.10 mph82%29.88 "Hg7 mi
11:36 AM48 °FPartly sunny.10 mph82%29.87 "Hg7 mi
11:16 AM48 °FCloudy.10 mph82%29.88 "Hg6 mi
10:56 AM48 °FOvercast.12 mph82%29.88 "Hg6 mi
10:36 AM48 °FOvercast.13 mph82%29.88 "Hg6 mi
10:16 AM48 °FOvercast.13 mph82%29.88 "Hg6 mi
9:56 AM48 °FMostly cloudy.10 mph82%29.89 "Hg5 mi
9:36 AM48 °FOvercast.9 mph82%29.89 "Hg6 mi
9:16 AM46 °FMostly cloudy.10 mph87%29.89 "Hg7 mi
8:56 AM46 °FMostly cloudy.5 mph87%29.89 "Hg5 mi
8:36 AM46 °FMostly cloudy.5 mph87%29.89 "Hg5 mi
8:16 AM46 °FMostly cloudy.3 mph87%29.89 "Hg5 mi
7:56 AM46 °FMostly cloudy.5 mph87%29.88 "Hg6 mi
7:36 AM46 °FMostly cloudy.No wind82%29.88 "Hg8 mi
7:16 AM46 °FMostly cloudy.No wind82%29.88 "Hg7 mi
6:56 AM46 °FMostly cloudy.No wind82%29.88 "Hg7 mi
6:36 AM46 °FPartly cloudy.No wind82%29.88 "Hg7 mi
6:16 AM46 °FMostly cloudy.9 mph87%29.88 "Hg7 mi
5:56 AM46 °FOvercast.8 mph87%29.89 "Hg8 mi
5:36 AM46 °FOvercast.No wind76%29.89 "Hg9 mi
5:16 AM45 °FOvercast.6 mph81%29.90 "Hg9 mi
Weather by CustomWeather, © 2014

See weather overviewHow to use our weather pages